TimeEDT,TemperatureF,Dew PointF,Humidity,Sea Level PressureIn,VisibilityMPH,Wind Direction,Wind SpeedMPH,Gust SpeedMPH,PrecipitationIn,Events,Conditions,WindDirDegrees,DateUTC
12:53 AM,69.1,64.0,84,29.94,10.0,SSW,4.6,-,0.00,Rain,Light Rain,200,2013-07-27 04:53:00
1:53 AM,69.1,64.0,84,29.94,9.0,SSW,4.6,-,0.00,Rain,Light Rain,210,2013-07-27 05:53:00
2:53 AM,68.0,64.0,87,29.92,7.0,South,6.9,-,0.00,Rain,Light Rain,180,2013-07-27 06:53:00
3:53 AM,68.0,64.0,87,29.90,9.0,South,11.5,-,0.00,,Overcast,190,2013-07-27 07:53:00
4:53 AM,66.0,63.0,90,29.89,6.0,South,9.2,-,0.00,Rain,Light Rain,180,2013-07-27 08:53:00
5:00 AM,66.2,62.6,88,29.91,8.0,SSW,6.9,-,0.00,Rain,Light Rain,200,2013-07-27 09:00:00
5:08 AM,66.2,62.6,88,29.91,7.0,South,9.2,-,0.00,Rain,Light Rain,190,2013-07-27 09:08:00
5:16 AM,66.2,62.6,88,29.90,6.0,South,9.2,-,0.00,Rain,Light Rain,190,2013-07-27 09:16:00
5:24 AM,66.2,62.6,88,29.90,6.0,South,8.1,-,0.00,Rain,Light Rain,180,2013-07-27 09:24:00
5:53 AM,66.0,63.0,90,29.88,6.0,South,6.9,-,0.00,Rain,Light Rain,190,2013-07-27 09:53:00
6:05 AM,66.2,62.6,88,29.90,2.0,South,5.8,-,0.05,Rain,Light Rain,190,2013-07-27 10:05:00
6:14 AM,66.2,62.6,88,29.90,3.0,South,6.9,-,0.08,Rain,Rain,190,2013-07-27 10:14:00
6:22 AM,66.2,62.6,88,29.90,4.0,SSW,4.6,-,0.08,Rain,Light Rain,200,2013-07-27 10:22:00
6:32 AM,66.2,64.4,94,29.91,5.0,SSW,4.6,-,0.08,Rain,Light Rain,210,2013-07-27 10:32:00
6:39 AM,66.2,62.6,88,29.91,1.8,SSW,6.9,-,0.16,Rain,Heavy Rain,200,2013-07-27 10:39:00
6:53 AM,66.0,63.0,90,29.89,2.5,SSW,6.9,-,0.23,Rain,Heavy Rain,200,2013-07-27 10:53:00
7:04 AM,66.2,62.6,88,29.91,3.0,SSW,5.8,-,0.03,Rain,Rain,200,2013-07-27 11:04:00
7:18 AM,66.2,62.6,88,29.91,3.0,SSW,8.1,-,0.07,Rain,Rain,210,2013-07-27 11:18:00
7:53 AM,66.0,63.0,90,29.89,5.0,SW,8.1,-,0.11,Rain,Light Rain,220,2013-07-27 11:53:00
8:46 AM,66.2,64.4,94,29.91,2.5,SW,8.1,-,0.00,,Overcast,220,2013-07-27 12:46:00
8:53 AM,66.9,64.0,90,29.89,4.0,SW,9.2,-,0.00,,Overcast,220,2013-07-27 12:53:00
9:53 AM,68.0,64.0,87,29.89,9.0,SW,13.8,-,N/A,,Overcast,230,2013-07-27 13:53:00
10:53 AM,69.1,64.0,84,29.88,10.0,SW,10.4,-,N/A,,Overcast,220,2013-07-27 14:53:00
11:40 AM,73.4,64.4,73,29.90,10.0,WSW,12.7,18.4,N/A,,Scattered Clouds,240,2013-07-27 15:40:00
11:53 AM,73.0,63.0,71,29.88,10.0,SW,13.8,19.6,N/A,,Scattered Clouds,220,2013-07-27 15:53:00
12:18 PM,73.4,62.6,69,29.89,10.0,West,13.8,-,N/A,,Mostly Cloudy,260,2013-07-27 16:18:00
12:28 PM,73.4,60.8,65,29.89,10.0,West,13.8,19.6,N/A,,Mostly Cloudy,260,2013-07-27 16:28:00
12:53 PM,75.0,59.0,57,29.87,10.0,WSW,16.1,-,N/A,,Partly Cloudy,240,2013-07-27 16:53:00
1:53 PM,75.9,57.9,54,29.87,10.0,WSW,15.0,24.2,N/A,,Partly Cloudy,240,2013-07-27 17:53:00
2:53 PM,77.0,57.0,50,29.86,10.0,SW,16.1,21.9,N/A,,Scattered Clouds,230,2013-07-27 18:53:00
3:53 PM,78.1,57.0,48,29.84,10.0,WSW,15.0,21.9,N/A,,Mostly Cloudy,250,2013-07-27 19:53:00
4:53 PM,75.9,55.9,50,29.84,10.0,West,10.4,-,N/A,,Mostly Cloudy,260,2013-07-27 20:53:00
5:53 PM,77.0,55.9,48,29.84,10.0,West,13.8,19.6,N/A,,Partly Cloudy,270,2013-07-27 21:53:00
6:53 PM,73.9,54.0,50,29.84,10.0,WNW,11.5,20.7,N/A,,Partly Cloudy,290,2013-07-27 22:53:00
7:53 PM,73.0,53.1,49,29.86,10.0,WNW,12.7,19.6,N/A,,Clear,290,2013-07-27 23:53:00
8:53 PM,69.1,52.0,54,29.87,10.0,West,8.1,-,N/A,,Clear,280,2013-07-28 00:53:00
9:53 PM,66.0,52.0,60,29.90,10.0,WNW,8.1,-,N/A,,Clear,290,2013-07-28 01:53:00
10:53 PM,62.1,53.1,72,29.91,10.0,WNW,5.8,-,N/A,,Clear,290,2013-07-28 02:53:00
11:53 PM,62.1,51.1,67,29.92,10.0,West,4.6,-,N/A,,Clear,270,2013-07-28 03:53:00